CT1AKV-10 Estrada Real PT current weather conditions

sailwx.info

Wind from 330 at 6 knots gusting 14

Air temperature 27.2° C
Dewpoint -7.0° C

Last reported at 2017-Jul-21 16:00 UTC.
Time now 2017-Jul-21 16:49 UTC

Location: N 39°11' W 008°44'.
View on Google Maps.

See reports from other nearby stations

  
Tides and Currents Weather Stations Pressure Air Temp Water Temp Dewpoint Dewpoint Depression Visibility Wind Speed Wind Dir Waves Ship Positions
date/time (UTC)wind fromknots sea level pressurealtimeterstation pressurevisibilityair tempwater tempwave heightnotes
2017-Jul-21 16:00 330 6 gusting 14 27.2
2017-Jul-21 15:45 311 6 gusting 17 27.2
2017-Jul-21 15:30 322 6 gusting 15 27.2
2017-Jul-21 15:15 308 6 gusting 16 27.2
2017-Jul-21 15:00 324 6 gusting 16 27.8
2017-Jul-21 14:30 320 6 gusting 14 27.8
2017-Jul-20 21:15 327 4 gusting 9 17.2
2017-Jul-20 21:00 329 4 gusting 11 17.2
2017-Jul-20 20:45 330 5 gusting 12 17.2
2017-Jul-20 20:30 314 5 gusting 12 17.8
2017-Jul-20 20:01 314 5 gusting 14 18.3
2017-Jul-20 19:46 327 5 gusting 14 18.9
2017-Jul-20 19:31 330 5 gusting 14 19.4
2017-Jul-20 19:16 327 6 gusting 13 20.0
2017-Jul-20 19:01 330 5 gusting 11 22.2
2017-Jul-20 18:46 355 6 gusting 14 21.7
2017-Jul-20 18:31 335 6 gusting 13 22.2
2017-Jul-20 18:16 298 6 gusting 18 22.8
2017-Jul-20 18:01 319 6 gusting 16 23.3
2017-Jul-20 17:46 317 6 gusting 13 23.3
2017-Jul-20 17:31 322 6 gusting 13 22.8
2017-Jul-20 17:16 331 6 gusting 14 21.7
2017-Jul-20 17:01 322 6 gusting 17 21.7
2017-Jul-20 16:46 329 6 gusting 14 22.8
2017-Jul-20 16:31 321 6 gusting 14 25.0
2017-Jul-20 16:16 317 6 gusting 13 24.4
2017-Jul-20 16:01 304 5 gusting 14 23.9
2017-Jul-20 15:46 334 6 gusting 14 23.3
2017-Jul-20 15:16 330 6 gusting 14 23.9
2017-Jul-20 15:01 322 6 gusting 17 24.4
2017-Jul-20 14:46 315 6 gusting 14 26.1
2017-Jul-20 14:31 333 6 gusting 14 26.7
2017-Jul-20 14:16 319 6 gusting 14 26.7
2017-Jul-20 14:01 327 6 gusting 15 27.2
2017-Jul-20 13:46 319 6 gusting 13 27.2
2017-Jul-20 13:02 304 5 gusting 12 27.2
2017-Jul-20 12:46 349 6 gusting 13 26.7
2017-Jul-20 12:31 311 6 gusting 14 26.7
2017-Jul-20 12:17 292 5 gusting 11 26.7
2017-Jul-20 12:01 323 6 gusting 13 25.6
2017-Jul-20 11:46 345 6 gusting 14 25.6
2017-Jul-20 11:31 317 6 gusting 16 25.6
2017-Jul-20 11:16 331 6 gusting 12 25.0
2017-Jul-20 11:01 298 6 gusting 14 25.0
2017-Jul-20 10:16 349 6 gusting 11 24.4
2017-Jul-20 10:01 323 5 gusting 13 23.9
2017-Jul-20 09:46 326 6 gusting 11 22.8
2017-Jul-20 09:31 331 6 gusting 13 22.8
2017-Jul-20 09:01 010 6 gusting 13 22.8
2017-Jul-20 08:46 348 5 gusting 13 20.6
2017-Jul-20 08:31 322 6 gusting 14 19.4
2017-Jul-20 08:16 316 6 gusting 14 18.9
2017-Jul-20 08:01 354 6 gusting 16 18.9
2017-Jul-20 07:32 335 6 gusting 14 19.4
2017-Jul-20 07:16 351 6 gusting 15 20.6
2017-Jul-20 06:16 336 2 gusting 8 16.7
2017-Jul-20 06:01 305 2 gusting 8 16.1
2017-Jul-20 05:46 320 2 gusting 7 16.1
2017-Jul-20 05:17 356 2 gusting 7 15.6
2017-Jul-20 05:01 301 2 gusting 6 15.6
2017-Jul-20 04:46 315 2 gusting 6 15.6
2017-Jul-20 04:31 316 2 gusting 6 16.1
2017-Jul-20 04:16 321 2 gusting 5 16.1
2017-Jul-20 04:01 322 2 gusting 6 16.1
2017-Jul-20 03:46 314 2 gusting 7 16.1
2017-Jul-20 03:31 328 2 gusting 6 16.1
2017-Jul-20 03:16 319 1 gusting 7 16.1
2017-Jul-20 02:46 303 1 gusting 5 16.1
2017-Jul-20 02:32 322 2 gusting 5 16.1
2017-Jul-20 02:01 282 2 gusting 6 16.1
2017-Jul-20 01:31 300 1 gusting 4 16.1
2017-Jul-20 01:01 322 2 gusting 5 16.7
2017-Jul-20 00:47 285 2 gusting 6 16.7
2017-Jul-20 00:31 290 2 gusting 6 16.7
2017-Jul-20 00:01 311 1 gusting 4 16.7
2017-Jul-19 23:17 349 2 gusting 6 17.2
2017-Jul-19 23:07 312 1 gusting 4 17.2
2017-Jul-19 22:46 319 1 gusting 3 17.8
2017-Jul-19 22:31 298 1 gusting 3 17.8
2017-Jul-19 22:16 278 2 gusting 6 18.3
2017-Jul-19 22:01 304 2 gusting 6 18.3
2017-Jul-19 21:46 313 4 gusting 8 18.3
2017-Jul-19 21:31 315 4 gusting 8 18.3
2017-Jul-19 21:16 312 5 gusting 13 18.9
2017-Jul-19 21:01 299 6 gusting 13 18.9
2017-Jul-19 20:46 344 6 gusting 13 19.4
2017-Jul-19 20:31 322 5 gusting 12 20.0
2017-Jul-19 20:16 315 4 gusting 13 20.6
2017-Jul-19 20:02 322 4 gusting 9 21.1
2017-Jul-19 19:46 321 4 gusting 9 21.7
2017-Jul-19 19:31 313 5 gusting 10 22.2
2017-Jul-19 19:16 303 4 gusting 11 23.3
2017-Jul-19 19:01 300 5 gusting 13 25.0
2017-Jul-19 18:46 318 3 gusting 9 25.6
2017-Jul-19 18:31 307 5 gusting 12 26.1
2017-Jul-19 18:16 317 6 gusting 13 26.7
2017-Jul-19 18:01 322 4 gusting 11 27.8
2017-Jul-19 17:46 322 4 gusting 10 27.8
2017-Jul-19 17:31 307 5 gusting 13 28.3
2017-Jul-19 17:16 330 5 gusting 10 28.9
2017-Jul-19 17:01 311 4 gusting 10 28.9
2017-Jul-19 16:46 321 4 gusting 11 28.3
2017-Jul-19 16:31 310 4 gusting 11 28.3
2017-Jul-19 16:16 321 5 gusting 12 28.3
2017-Jul-19 16:01 317 4 gusting 13 29.4